Index of /20260427/WXO-DD/model_rdps/10km/06/082
Name Last modified Size Description
Parent Directory -
20260427T06Z_MSC_RDPS_AbsoluteVorticity_IsbL-0250_RLatLon0.09_PT082H.grib2 2026-04-27 09:05 618K
20260427T06Z_MSC_RDPS_AbsoluteVorticity_IsbL-0500_RLatLon0.09_PT082H.grib2 2026-04-27 09:05 572K
20260427T06Z_MSC_RDPS_AbsoluteVorticity_IsbL-0700_RLatLon0.09_PT082H.grib2 2026-04-27 09:05 755K
20260427T06Z_MSC_RDPS_AbsoluteVorticity_IsbL-0850_RLatLon0.09_PT082H.grib2 2026-04-27 09:05 775K
20260427T06Z_MSC_RDPS_AirTemp_AGL-120m_RLatLon0.09_PT082H.grib2 2026-04-27 09:05 382K
20260427T06Z_MSC_RDPS_AirTemp_AGL-2m_RLatLon0.09_PT082H.grib2 2026-04-27 09:05 638K
20260427T06Z_MSC_RDPS_AirTemp_AGL-40m_RLatLon0.09_PT082H.grib2 2026-04-27 09:05 394K
20260427T06Z_MSC_RDPS_AirTemp_AGL-80m_RLatLon0.09_PT082H.grib2 2026-04-27 09:05 388K
20260427T06Z_MSC_RDPS_AirTemp_IsbL-0001_RLatLon0.09_PT082H.grib2 2026-04-27 09:05 323K
20260427T06Z_MSC_RDPS_AirTemp_IsbL-0005_RLatLon0.09_PT082H.grib2 2026-04-27 09:05 290K
20260427T06Z_MSC_RDPS_AirTemp_IsbL-0010_RLatLon0.09_PT082H.grib2 2026-04-27 09:05 303K
20260427T06Z_MSC_RDPS_AirTemp_IsbL-0020_RLatLon0.09_PT082H.grib2 2026-04-27 09:05 318K
20260427T06Z_MSC_RDPS_AirTemp_IsbL-0030_RLatLon0.09_PT082H.grib2 2026-04-27 09:05 340K
20260427T06Z_MSC_RDPS_AirTemp_IsbL-0050_RLatLon0.09_PT082H.grib2 2026-04-27 09:05 313K
20260427T06Z_MSC_RDPS_AirTemp_IsbL-0100_RLatLon0.09_PT082H.grib2 2026-04-27 09:05 425K
20260427T06Z_MSC_RDPS_AirTemp_IsbL-0150_RLatLon0.09_PT082H.grib2 2026-04-27 09:05 423K
20260427T06Z_MSC_RDPS_AirTemp_IsbL-0175_RLatLon0.09_PT082H.grib2 2026-04-27 09:05 409K
20260427T06Z_MSC_RDPS_AirTemp_IsbL-0200_RLatLon0.09_PT082H.grib2 2026-04-27 09:05 414K
20260427T06Z_MSC_RDPS_AirTemp_IsbL-0225_RLatLon0.09_PT082H.grib2 2026-04-27 09:05 413K
20260427T06Z_MSC_RDPS_AirTemp_IsbL-0250_RLatLon0.09_PT082H.grib2 2026-04-27 09:05 420K
20260427T06Z_MSC_RDPS_AirTemp_IsbL-0275_RLatLon0.09_PT082H.grib2 2026-04-27 09:05 399K
20260427T06Z_MSC_RDPS_AirTemp_IsbL-0300_RLatLon0.09_PT082H.grib2 2026-04-27 09:05 407K
20260427T06Z_MSC_RDPS_AirTemp_IsbL-0350_RLatLon0.09_PT082H.grib2 2026-04-27 09:05 420K
20260427T06Z_MSC_RDPS_AirTemp_IsbL-0400_RLatLon0.09_PT082H.grib2 2026-04-27 09:05 423K
20260427T06Z_MSC_RDPS_AirTemp_IsbL-0450_RLatLon0.09_PT082H.grib2 2026-04-27 09:05 395K
20260427T06Z_MSC_RDPS_AirTemp_IsbL-0500_RLatLon0.09_PT082H.grib2 2026-04-27 09:05 404K
20260427T06Z_MSC_RDPS_AirTemp_IsbL-0550_RLatLon0.09_PT082H.grib2 2026-04-27 09:05 421K
20260427T06Z_MSC_RDPS_AirTemp_IsbL-0600_RLatLon0.09_PT082H.grib2 2026-04-27 09:05 440K
20260427T06Z_MSC_RDPS_AirTemp_IsbL-0650_RLatLon0.09_PT082H.grib2 2026-04-27 09:05 457K
20260427T06Z_MSC_RDPS_AirTemp_IsbL-0700_RLatLon0.09_PT082H.grib2 2026-04-27 09:05 481K
20260427T06Z_MSC_RDPS_AirTemp_IsbL-0750_RLatLon0.09_PT082H.grib2 2026-04-27 09:05 404K
20260427T06Z_MSC_RDPS_AirTemp_IsbL-0800_RLatLon0.09_PT082H.grib2 2026-04-27 09:05 447K
20260427T06Z_MSC_RDPS_AirTemp_IsbL-0850_RLatLon0.09_PT082H.grib2 2026-04-27 09:05 504K
20260427T06Z_MSC_RDPS_AirTemp_IsbL-0875_RLatLon0.09_PT082H.grib2 2026-04-27 09:05 528K
20260427T06Z_MSC_RDPS_AirTemp_IsbL-0900_RLatLon0.09_PT082H.grib2 2026-04-27 09:05 539K
20260427T06Z_MSC_RDPS_AirTemp_IsbL-0925_RLatLon0.09_PT082H.grib2 2026-04-27 09:05 535K
20260427T06Z_MSC_RDPS_AirTemp_IsbL-0950_RLatLon0.09_PT082H.grib2 2026-04-27 09:05 539K
20260427T06Z_MSC_RDPS_AirTemp_IsbL-0970_RLatLon0.09_PT082H.grib2 2026-04-27 09:05 531K
20260427T06Z_MSC_RDPS_AirTemp_IsbL-0985_RLatLon0.09_PT082H.grib2 2026-04-27 09:05 519K
20260427T06Z_MSC_RDPS_AirTemp_IsbL-1000_RLatLon0.09_PT082H.grib2 2026-04-27 09:05 504K
20260427T06Z_MSC_RDPS_AirTemp_IsbL-1015_RLatLon0.09_PT082H.grib2 2026-04-27 09:05 505K
20260427T06Z_MSC_RDPS_Albedo_Sfc_RLatLon0.09_PT082H.grib2 2026-04-27 09:05 159K
20260427T06Z_MSC_RDPS_CAPE_Sfc_RLatLon0.09_PT082H.grib2 2026-04-27 09:05 1.7M
20260427T06Z_MSC_RDPS_CIN_Sfc_RLatLon0.09_PT082H.grib2 2026-04-27 09:05 1.1M
20260427T06Z_MSC_RDPS_CloudWater_EAtm_RLatLon0.09_PT082H.grib2 2026-04-27 09:05 220K
20260427T06Z_MSC_RDPS_ConvectivePrecip-Accum_Sfc_RLatLon0.09_PT082H.grib2 2026-04-27 09:05 1.3M
20260427T06Z_MSC_RDPS_DewPointDepression_AGL-2m_RLatLon0.09_PT082H.grib2 2026-04-27 09:05 417K
20260427T06Z_MSC_RDPS_DewPointDepression_IsbL-0001_RLatLon0.09_PT082H.grib2 2026-04-27 09:05 193
20260427T06Z_MSC_RDPS_DewPointDepression_IsbL-0005_RLatLon0.09_PT082H.grib2 2026-04-27 09:05 193
20260427T06Z_MSC_RDPS_DewPointDepression_IsbL-0010_RLatLon0.09_PT082H.grib2 2026-04-27 09:05 193
20260427T06Z_MSC_RDPS_DewPointDepression_IsbL-0020_RLatLon0.09_PT082H.grib2 2026-04-27 09:05 193
20260427T06Z_MSC_RDPS_DewPointDepression_IsbL-0030_RLatLon0.09_PT082H.grib2 2026-04-27 09:05 193
20260427T06Z_MSC_RDPS_DewPointDepression_IsbL-0050_RLatLon0.09_PT082H.grib2 2026-04-27 09:05 82K
20260427T06Z_MSC_RDPS_DewPointDepression_IsbL-0100_RLatLon0.09_PT082H.grib2 2026-04-27 09:05 126K
20260427T06Z_MSC_RDPS_DewPointDepression_IsbL-0150_RLatLon0.09_PT082H.grib2 2026-04-27 09:05 143K
20260427T06Z_MSC_RDPS_DewPointDepression_IsbL-0175_RLatLon0.09_PT082H.grib2 2026-04-27 09:05 176K
20260427T06Z_MSC_RDPS_DewPointDepression_IsbL-0200_RLatLon0.09_PT082H.grib2 2026-04-27 09:05 215K
20260427T06Z_MSC_RDPS_DewPointDepression_IsbL-0225_RLatLon0.09_PT082H.grib2 2026-04-27 09:05 263K
20260427T06Z_MSC_RDPS_DewPointDepression_IsbL-0250_RLatLon0.09_PT082H.grib2 2026-04-27 09:05 300K
20260427T06Z_MSC_RDPS_DewPointDepression_IsbL-0275_RLatLon0.09_PT082H.grib2 2026-04-27 09:05 304K
20260427T06Z_MSC_RDPS_DewPointDepression_IsbL-0300_RLatLon0.09_PT082H.grib2 2026-04-27 09:05 324K
20260427T06Z_MSC_RDPS_DewPointDepression_IsbL-0350_RLatLon0.09_PT082H.grib2 2026-04-27 09:05 327K
20260427T06Z_MSC_RDPS_DewPointDepression_IsbL-0400_RLatLon0.09_PT082H.grib2 2026-04-27 09:05 335K
20260427T06Z_MSC_RDPS_DewPointDepression_IsbL-0450_RLatLon0.09_PT082H.grib2 2026-04-27 09:05 341K
20260427T06Z_MSC_RDPS_DewPointDepression_IsbL-0500_RLatLon0.09_PT082H.grib2 2026-04-27 09:05 347K
20260427T06Z_MSC_RDPS_DewPointDepression_IsbL-0550_RLatLon0.09_PT082H.grib2 2026-04-27 09:05 360K
20260427T06Z_MSC_RDPS_DewPointDepression_IsbL-0600_RLatLon0.09_PT082H.grib2 2026-04-27 09:05 374K
20260427T06Z_MSC_RDPS_DewPointDepression_IsbL-0650_RLatLon0.09_PT082H.grib2 2026-04-27 09:05 383K
20260427T06Z_MSC_RDPS_DewPointDepression_IsbL-0700_RLatLon0.09_PT082H.grib2 2026-04-27 09:05 391K
20260427T06Z_MSC_RDPS_DewPointDepression_IsbL-0750_RLatLon0.09_PT082H.grib2 2026-04-27 09:05 408K
20260427T06Z_MSC_RDPS_DewPointDepression_IsbL-0800_RLatLon0.09_PT082H.grib2 2026-04-27 09:05 436K
20260427T06Z_MSC_RDPS_DewPointDepression_IsbL-0850_RLatLon0.09_PT082H.grib2 2026-04-27 09:05 473K
20260427T06Z_MSC_RDPS_DewPointDepression_IsbL-0875_RLatLon0.09_PT082H.grib2 2026-04-27 09:05 478K
20260427T06Z_MSC_RDPS_DewPointDepression_IsbL-0900_RLatLon0.09_PT082H.grib2 2026-04-27 09:05 469K
20260427T06Z_MSC_RDPS_DewPointDepression_IsbL-0925_RLatLon0.09_PT082H.grib2 2026-04-27 09:05 452K
20260427T06Z_MSC_RDPS_DewPointDepression_IsbL-0950_RLatLon0.09_PT082H.grib2 2026-04-27 09:05 448K
20260427T06Z_MSC_RDPS_DewPointDepression_IsbL-0970_RLatLon0.09_PT082H.grib2 2026-04-27 09:05 439K
20260427T06Z_MSC_RDPS_DewPointDepression_IsbL-0985_RLatLon0.09_PT082H.grib2 2026-04-27 09:05 438K
20260427T06Z_MSC_RDPS_DewPointDepression_IsbL-1000_RLatLon0.09_PT082H.grib2 2026-04-27 09:05 434K
20260427T06Z_MSC_RDPS_DewPointDepression_IsbL-1015_RLatLon0.09_PT082H.grib2 2026-04-27 09:05 427K
20260427T06Z_MSC_RDPS_DewPoint_AGL-2m_RLatLon0.09_PT082H.grib2 2026-04-27 09:05 404K
20260427T06Z_MSC_RDPS_DownwardLongwaveRadiationFlux-Accum_Sfc_RLatLon0.09_PT082H.grib2 2026-04-27 09:05 440K
20260427T06Z_MSC_RDPS_DownwardShortwaveRadiationFlux-Accum_NTAtm_RLatLon0.09_PT082H.grib2 2026-04-27 09:05 104K
20260427T06Z_MSC_RDPS_DownwardShortwaveRadiationFlux-Accum_Sfc_RLatLon0.09_PT082H.grib2 2026-04-27 09:05 637K
20260427T06Z_MSC_RDPS_FreezingRain-Accum1h_Sfc_RLatLon0.09_PT082H.grib2 2026-04-27 09:05 28K
20260427T06Z_MSC_RDPS_FreezingRain-Accum_Sfc_RLatLon0.09_PT082H.grib2 2026-04-27 09:05 242K
20260427T06Z_MSC_RDPS_GeopotentialHeight_IsbL-0001_RLatLon0.09_PT082H.grib2 2026-04-27 09:05 319K
20260427T06Z_MSC_RDPS_GeopotentialHeight_IsbL-0005_RLatLon0.09_PT082H.grib2 2026-04-27 09:05 337K
20260427T06Z_MSC_RDPS_GeopotentialHeight_IsbL-0010_RLatLon0.09_PT082H.grib2 2026-04-27 09:05 305K
20260427T06Z_MSC_RDPS_GeopotentialHeight_IsbL-0020_RLatLon0.09_PT082H.grib2 2026-04-27 09:05 304K
20260427T06Z_MSC_RDPS_GeopotentialHeight_IsbL-0030_RLatLon0.09_PT082H.grib2 2026-04-27 09:05 305K
20260427T06Z_MSC_RDPS_GeopotentialHeight_IsbL-0050_RLatLon0.09_PT082H.grib2 2026-04-27 09:05 340K
20260427T06Z_MSC_RDPS_GeopotentialHeight_IsbL-0100_RLatLon0.09_PT082H.grib2 2026-04-27 09:05 283K
20260427T06Z_MSC_RDPS_GeopotentialHeight_IsbL-0150_RLatLon0.09_PT082H.grib2 2026-04-27 09:05 228K
20260427T06Z_MSC_RDPS_GeopotentialHeight_IsbL-0175_RLatLon0.09_PT082H.grib2 2026-04-27 09:05 262K
20260427T06Z_MSC_RDPS_GeopotentialHeight_IsbL-0200_RLatLon0.09_PT082H.grib2 2026-04-27 09:05 263K
20260427T06Z_MSC_RDPS_GeopotentialHeight_IsbL-0225_RLatLon0.09_PT082H.grib2 2026-04-27 09:05 265K
20260427T06Z_MSC_RDPS_GeopotentialHeight_IsbL-0250_RLatLon0.09_PT082H.grib2 2026-04-27 09:05 266K
20260427T06Z_MSC_RDPS_GeopotentialHeight_IsbL-0275_RLatLon0.09_PT082H.grib2 2026-04-27 09:05 265K
20260427T06Z_MSC_RDPS_GeopotentialHeight_IsbL-0300_RLatLon0.09_PT082H.grib2 2026-04-27 09:05 265K
20260427T06Z_MSC_RDPS_GeopotentialHeight_IsbL-0350_RLatLon0.09_PT082H.grib2 2026-04-27 09:05 230K
20260427T06Z_MSC_RDPS_GeopotentialHeight_IsbL-0400_RLatLon0.09_PT082H.grib2 2026-04-27 09:05 227K
20260427T06Z_MSC_RDPS_GeopotentialHeight_IsbL-0450_RLatLon0.09_PT082H.grib2 2026-04-27 09:05 294K
20260427T06Z_MSC_RDPS_GeopotentialHeight_IsbL-0500_RLatLon0.09_PT082H.grib2 2026-04-27 09:05 288K
20260427T06Z_MSC_RDPS_GeopotentialHeight_IsbL-0550_RLatLon0.09_PT082H.grib2 2026-04-27 09:05 285K
20260427T06Z_MSC_RDPS_GeopotentialHeight_IsbL-0600_RLatLon0.09_PT082H.grib2 2026-04-27 09:05 281K
20260427T06Z_MSC_RDPS_GeopotentialHeight_IsbL-0650_RLatLon0.09_PT082H.grib2 2026-04-27 09:05 252K
20260427T06Z_MSC_RDPS_GeopotentialHeight_IsbL-0700_RLatLon0.09_PT082H.grib2 2026-04-27 09:05 333K
20260427T06Z_MSC_RDPS_GeopotentialHeight_IsbL-0750_RLatLon0.09_PT082H.grib2 2026-04-27 09:05 336K
20260427T06Z_MSC_RDPS_GeopotentialHeight_IsbL-0800_RLatLon0.09_PT082H.grib2 2026-04-27 09:05 344K
20260427T06Z_MSC_RDPS_GeopotentialHeight_IsbL-0850_RLatLon0.09_PT082H.grib2 2026-04-27 09:05 387K
20260427T06Z_MSC_RDPS_GeopotentialHeight_IsbL-0875_RLatLon0.09_PT082H.grib2 2026-04-27 09:05 392K
20260427T06Z_MSC_RDPS_GeopotentialHeight_IsbL-0900_RLatLon0.09_PT082H.grib2 2026-04-27 09:05 396K
20260427T06Z_MSC_RDPS_GeopotentialHeight_IsbL-0925_RLatLon0.09_PT082H.grib2 2026-04-27 09:05 399K
20260427T06Z_MSC_RDPS_GeopotentialHeight_IsbL-0950_RLatLon0.09_PT082H.grib2 2026-04-27 09:05 402K
20260427T06Z_MSC_RDPS_GeopotentialHeight_IsbL-0970_RLatLon0.09_PT082H.grib2 2026-04-27 09:05 408K
20260427T06Z_MSC_RDPS_GeopotentialHeight_IsbL-0985_RLatLon0.09_PT082H.grib2 2026-04-27 09:05 419K
20260427T06Z_MSC_RDPS_GeopotentialHeight_IsbL-1000_RLatLon0.09_PT082H.grib2 2026-04-27 09:05 433K
20260427T06Z_MSC_RDPS_GeopotentialHeight_IsbL-1015_RLatLon0.09_PT082H.grib2 2026-04-27 09:05 451K
20260427T06Z_MSC_RDPS_Humidex_Sfc_RLatLon0.09_PT082H.grib2 2026-04-27 09:05 2.4M
20260427T06Z_MSC_RDPS_IcePellets-Accum1h_Sfc_RLatLon0.09_PT082H.grib2 2026-04-27 09:05 2.9K
20260427T06Z_MSC_RDPS_IcePellets-Accum_Sfc_RLatLon0.09_PT082H.grib2 2026-04-27 09:05 32K
20260427T06Z_MSC_RDPS_KIndex_Sfc_RLatLon0.09_PT082H.grib2 2026-04-27 09:05 2.5M
20260427T06Z_MSC_RDPS_LatentHeatNetFlux_Sfc_RLatLon0.09_PT082H.grib2 2026-04-27 09:05 296K
20260427T06Z_MSC_RDPS_LiftedIndex-MU-VT_IsbL-0500_RLatLon0.09_PT082H.grib2 2026-04-27 09:05 2.4M
20260427T06Z_MSC_RDPS_NetLongwaveRadiationFlux-Accum_Sfc_RLatLon0.09_PT082H.grib2 2026-04-27 09:05 487K
20260427T06Z_MSC_RDPS_NetShortwaveRadiationFlux-Accum_Sfc_RLatLon0.09_PT082H.grib2 2026-04-27 09:05 641K
20260427T06Z_MSC_RDPS_PlanetaryBoundaryLayerHeight_Sfc_RLatLon0.09_PT082H.grib2 2026-04-27 09:05 1.2M
20260427T06Z_MSC_RDPS_Precip-Accum1h_Sfc_RLatLon0.09_PT082H.grib2 2026-04-27 09:05 1.2M
20260427T06Z_MSC_RDPS_Precip-Accum_Sfc_RLatLon0.09_PT082H.grib2 2026-04-27 09:05 2.2M
20260427T06Z_MSC_RDPS_PrecipRate_Sfc_RLatLon0.09_PT082H.grib2 2026-04-27 09:05 169K
20260427T06Z_MSC_RDPS_PrecipType-Instant_Sfc_RLatLon0.09_PT082H.grib2 2026-04-27 09:05 552K
20260427T06Z_MSC_RDPS_Pressure-Trend3h_Sfc_RLatLon0.09_PT082H.grib2 2026-04-27 09:05 1.2M
20260427T06Z_MSC_RDPS_Pressure_MSL_RLatLon0.09_PT082H.grib2 2026-04-27 09:05 296K
20260427T06Z_MSC_RDPS_Pressure_PVU-1.5_RLatLon0.09_PT082H.grib2 2026-04-27 09:05 2.5M
20260427T06Z_MSC_RDPS_Pressure_PVU-1_RLatLon0.09_PT082H.grib2 2026-04-27 09:05 2.4M
20260427T06Z_MSC_RDPS_Pressure_PVU-2_RLatLon0.09_PT082H.grib2 2026-04-27 09:05 2.4M
20260427T06Z_MSC_RDPS_Pressure_Sfc_RLatLon0.09_PT082H.grib2 2026-04-27 09:05 500K
20260427T06Z_MSC_RDPS_RadiativeTemp_Sfc_RLatLon0.09_PT082H.grib2 2026-04-27 09:05 324K
20260427T06Z_MSC_RDPS_Rain-Accum1h_Sfc_RLatLon0.09_PT082H.grib2 2026-04-27 09:05 581K
20260427T06Z_MSC_RDPS_Rain-Accum_Sfc_RLatLon0.09_PT082H.grib2 2026-04-27 09:05 1.8M
20260427T06Z_MSC_RDPS_RelativeHumidity_AGL-2m_RLatLon0.09_PT082H.grib2 2026-04-27 09:05 1.0M
20260427T06Z_MSC_RDPS_RelativeHumidity_IsbL-0010_RLatLon0.09_PT082H.grib2 2026-04-27 09:05 628K
20260427T06Z_MSC_RDPS_RelativeHumidity_IsbL-0020_RLatLon0.09_PT082H.grib2 2026-04-27 09:05 668K
20260427T06Z_MSC_RDPS_RelativeHumidity_IsbL-0030_RLatLon0.09_PT082H.grib2 2026-04-27 09:05 604K
20260427T06Z_MSC_RDPS_RelativeHumidity_IsbL-0050_RLatLon0.09_PT082H.grib2 2026-04-27 09:05 369K
20260427T06Z_MSC_RDPS_RelativeHumidity_IsbL-0100_RLatLon0.09_PT082H.grib2 2026-04-27 09:05 277K
20260427T06Z_MSC_RDPS_RelativeHumidity_IsbL-0150_RLatLon0.09_PT082H.grib2 2026-04-27 09:05 401K
20260427T06Z_MSC_RDPS_RelativeHumidity_IsbL-0175_RLatLon0.09_PT082H.grib2 2026-04-27 09:05 474K
20260427T06Z_MSC_RDPS_RelativeHumidity_IsbL-0200_RLatLon0.09_PT082H.grib2 2026-04-27 09:05 553K
20260427T06Z_MSC_RDPS_RelativeHumidity_IsbL-0225_RLatLon0.09_PT082H.grib2 2026-04-27 09:05 627K
20260427T06Z_MSC_RDPS_RelativeHumidity_IsbL-0250_RLatLon0.09_PT082H.grib2 2026-04-27 09:05 701K
20260427T06Z_MSC_RDPS_RelativeHumidity_IsbL-0275_RLatLon0.09_PT082H.grib2 2026-04-27 09:05 723K
20260427T06Z_MSC_RDPS_RelativeHumidity_IsbL-0300_RLatLon0.09_PT082H.grib2 2026-04-27 09:05 768K
20260427T06Z_MSC_RDPS_RelativeHumidity_IsbL-0350_RLatLon0.09_PT082H.grib2 2026-04-27 09:05 781K
20260427T06Z_MSC_RDPS_RelativeHumidity_IsbL-0400_RLatLon0.09_PT082H.grib2 2026-04-27 09:05 791K
20260427T06Z_MSC_RDPS_RelativeHumidity_IsbL-0450_RLatLon0.09_PT082H.grib2 2026-04-27 09:05 794K
20260427T06Z_MSC_RDPS_RelativeHumidity_IsbL-0500_RLatLon0.09_PT082H.grib2 2026-04-27 09:05 799K
20260427T06Z_MSC_RDPS_RelativeHumidity_IsbL-0550_RLatLon0.09_PT082H.grib2 2026-04-27 09:05 820K
20260427T06Z_MSC_RDPS_RelativeHumidity_IsbL-0600_RLatLon0.09_PT082H.grib2 2026-04-27 09:05 843K
20260427T06Z_MSC_RDPS_RelativeHumidity_IsbL-0650_RLatLon0.09_PT082H.grib2 2026-04-27 09:05 858K
20260427T06Z_MSC_RDPS_RelativeHumidity_IsbL-0700_RLatLon0.09_PT082H.grib2 2026-04-27 09:05 878K
20260427T06Z_MSC_RDPS_RelativeHumidity_IsbL-0750_RLatLon0.09_PT082H.grib2 2026-04-27 09:05 922K
20260427T06Z_MSC_RDPS_RelativeHumidity_IsbL-0800_RLatLon0.09_PT082H.grib2 2026-04-27 09:05 1.0M
20260427T06Z_MSC_RDPS_RelativeHumidity_IsbL-0850_RLatLon0.09_PT082H.grib2 2026-04-27 09:05 1.0M
20260427T06Z_MSC_RDPS_RelativeHumidity_IsbL-0875_RLatLon0.09_PT082H.grib2 2026-04-27 09:05 1.1M
20260427T06Z_MSC_RDPS_RelativeHumidity_IsbL-0900_RLatLon0.09_PT082H.grib2 2026-04-27 09:05 1.1M
20260427T06Z_MSC_RDPS_RelativeHumidity_IsbL-0925_RLatLon0.09_PT082H.grib2 2026-04-27 09:05 1.1M
20260427T06Z_MSC_RDPS_RelativeHumidity_IsbL-0950_RLatLon0.09_PT082H.grib2 2026-04-27 09:05 1.1M
20260427T06Z_MSC_RDPS_RelativeHumidity_IsbL-0970_RLatLon0.09_PT082H.grib2 2026-04-27 09:05 1.1M
20260427T06Z_MSC_RDPS_RelativeHumidity_IsbL-0985_RLatLon0.09_PT082H.grib2 2026-04-27 09:05 1.0M
20260427T06Z_MSC_RDPS_RelativeHumidity_IsbL-1000_RLatLon0.09_PT082H.grib2 2026-04-27 09:05 1.0M
20260427T06Z_MSC_RDPS_RelativeHumidity_IsbL-1015_RLatLon0.09_PT082H.grib2 2026-04-27 09:05 1.0M
20260427T06Z_MSC_RDPS_Runoff-Accum_Sfc_RLatLon0.09_PT082H.grib2 2026-04-27 09:05 65K
20260427T06Z_MSC_RDPS_SWEATIndex_Sfc_RLatLon0.09_PT082H.grib2 2026-04-27 09:05 2.4M
20260427T06Z_MSC_RDPS_SeeingIndex_EAtm_RLatLon0.09_PT082H.grib2 2026-04-27 09:05 1.0M
20260427T06Z_MSC_RDPS_SensibleHeatNetFlux_Sfc_RLatLon0.09_PT082H.grib2 2026-04-27 09:05 357K
20260427T06Z_MSC_RDPS_ShowalterIndex_IsbL-0500_RLatLon0.09_PT082H.grib2 2026-04-27 09:05 2.6M
20260427T06Z_MSC_RDPS_SkyTransparencyIndex_EAtm_RLatLon0.09_PT082H.grib2 2026-04-27 09:05 681K
20260427T06Z_MSC_RDPS_Snow-Accum1h_Sfc_RLatLon0.09_PT082H.grib2 2026-04-27 09:05 533K
20260427T06Z_MSC_RDPS_Snow-Accum_Sfc_RLatLon0.09_PT082H.grib2 2026-04-27 09:05 858K
20260427T06Z_MSC_RDPS_SnowDensity_Sfc_RLatLon0.09_PT082H.grib2 2026-04-27 09:05 187K
20260427T06Z_MSC_RDPS_SnowDepth_Sfc_RLatLon0.09_PT082H.grib2 2026-04-27 09:05 694K
20260427T06Z_MSC_RDPS_SoilTemp_DBS-0to10cm_RLatLon0.09_PT082H.grib2 2026-04-27 09:05 241K
20260427T06Z_MSC_RDPS_SoilTemp_Sfc_RLatLon0.09_PT082H.grib2 2026-04-27 09:05 296K
20260427T06Z_MSC_RDPS_SoilVolumetricIceContent_Sfc_RLatLon0.09_PT082H.grib2 2026-04-27 09:05 164K
20260427T06Z_MSC_RDPS_SoilVolumetricWaterContent_DBS-0to10cm_RLatLon0.09_PT082H.grib2 2026-04-27 09:05 268K
20260427T06Z_MSC_RDPS_SoilVolumetricWaterContent_DBS-0to1cm_RLatLon0.09_PT082H.grib2 2026-04-27 09:05 339K
20260427T06Z_MSC_RDPS_SpecificHumidity_AGL-120m_RLatLon0.09_PT082H.grib2 2026-04-27 09:05 499K
20260427T06Z_MSC_RDPS_SpecificHumidity_AGL-2m_RLatLon0.09_PT082H.grib2 2026-04-27 09:05 668K
20260427T06Z_MSC_RDPS_SpecificHumidity_AGL-40m_RLatLon0.09_PT082H.grib2 2026-04-27 09:05 505K
20260427T06Z_MSC_RDPS_SpecificHumidity_AGL-80m_RLatLon0.09_PT082H.grib2 2026-04-27 09:05 502K
20260427T06Z_MSC_RDPS_SpecificHumidity_IsbL-0001_RLatLon0.09_PT082H.grib2 2026-04-27 09:05 363K
20260427T06Z_MSC_RDPS_SpecificHumidity_IsbL-0005_RLatLon0.09_PT082H.grib2 2026-04-27 09:05 350K
20260427T06Z_MSC_RDPS_SpecificHumidity_IsbL-0010_RLatLon0.09_PT082H.grib2 2026-04-27 09:05 388K
20260427T06Z_MSC_RDPS_SpecificHumidity_IsbL-0020_RLatLon0.09_PT082H.grib2 2026-04-27 09:05 374K
20260427T06Z_MSC_RDPS_SpecificHumidity_IsbL-0030_RLatLon0.09_PT082H.grib2 2026-04-27 09:05 432K
20260427T06Z_MSC_RDPS_SpecificHumidity_IsbL-0050_RLatLon0.09_PT082H.grib2 2026-04-27 09:05 473K
20260427T06Z_MSC_RDPS_SpecificHumidity_IsbL-0100_RLatLon0.09_PT082H.grib2 2026-04-27 09:05 342K
20260427T06Z_MSC_RDPS_SpecificHumidity_IsbL-0150_RLatLon0.09_PT082H.grib2 2026-04-27 09:05 444K
20260427T06Z_MSC_RDPS_SpecificHumidity_IsbL-0175_RLatLon0.09_PT082H.grib2 2026-04-27 09:05 428K
20260427T06Z_MSC_RDPS_SpecificHumidity_IsbL-0200_RLatLon0.09_PT082H.grib2 2026-04-27 09:05 446K
20260427T06Z_MSC_RDPS_SpecificHumidity_IsbL-0225_RLatLon0.09_PT082H.grib2 2026-04-27 09:05 454K
20260427T06Z_MSC_RDPS_SpecificHumidity_IsbL-0250_RLatLon0.09_PT082H.grib2 2026-04-27 09:05 561K
20260427T06Z_MSC_RDPS_SpecificHumidity_IsbL-0275_RLatLon0.09_PT082H.grib2 2026-04-27 09:05 473K
20260427T06Z_MSC_RDPS_SpecificHumidity_IsbL-0300_RLatLon0.09_PT082H.grib2 2026-04-27 09:05 447K
20260427T06Z_MSC_RDPS_SpecificHumidity_IsbL-0350_RLatLon0.09_PT082H.grib2 2026-04-27 09:05 562K
20260427T06Z_MSC_RDPS_SpecificHumidity_IsbL-0400_RLatLon0.09_PT082H.grib2 2026-04-27 09:05 514K
20260427T06Z_MSC_RDPS_SpecificHumidity_IsbL-0450_RLatLon0.09_PT082H.grib2 2026-04-27 09:05 563K
20260427T06Z_MSC_RDPS_SpecificHumidity_IsbL-0500_RLatLon0.09_PT082H.grib2 2026-04-27 09:05 500K
20260427T06Z_MSC_RDPS_SpecificHumidity_IsbL-0550_RLatLon0.09_PT082H.grib2 2026-04-27 09:05 577K
20260427T06Z_MSC_RDPS_SpecificHumidity_IsbL-0600_RLatLon0.09_PT082H.grib2 2026-04-27 09:05 633K
20260427T06Z_MSC_RDPS_SpecificHumidity_IsbL-0650_RLatLon0.09_PT082H.grib2 2026-04-27 09:05 553K
20260427T06Z_MSC_RDPS_SpecificHumidity_IsbL-0700_RLatLon0.09_PT082H.grib2 2026-04-27 09:05 594K
20260427T06Z_MSC_RDPS_SpecificHumidity_IsbL-0750_RLatLon0.09_PT082H.grib2 2026-04-27 09:05 644K
20260427T06Z_MSC_RDPS_SpecificHumidity_IsbL-0800_RLatLon0.09_PT082H.grib2 2026-04-27 09:05 723K
20260427T06Z_MSC_RDPS_SpecificHumidity_IsbL-0850_RLatLon0.09_PT082H.grib2 2026-04-27 09:05 803K
20260427T06Z_MSC_RDPS_SpecificHumidity_IsbL-0875_RLatLon0.09_PT082H.grib2 2026-04-27 09:05 832K
20260427T06Z_MSC_RDPS_SpecificHumidity_IsbL-0900_RLatLon0.09_PT082H.grib2 2026-04-27 09:05 847K
20260427T06Z_MSC_RDPS_SpecificHumidity_IsbL-0925_RLatLon0.09_PT082H.grib2 2026-04-27 09:05 705K
20260427T06Z_MSC_RDPS_SpecificHumidity_IsbL-0950_RLatLon0.09_PT082H.grib2 2026-04-27 09:05 708K
20260427T06Z_MSC_RDPS_SpecificHumidity_IsbL-0970_RLatLon0.09_PT082H.grib2 2026-04-27 09:05 698K
20260427T06Z_MSC_RDPS_SpecificHumidity_IsbL-0985_RLatLon0.09_PT082H.grib2 2026-04-27 09:05 692K
20260427T06Z_MSC_RDPS_SpecificHumidity_IsbL-1000_RLatLon0.09_PT082H.grib2 2026-04-27 09:05 686K
20260427T06Z_MSC_RDPS_SpecificHumidity_IsbL-1015_RLatLon0.09_PT082H.grib2 2026-04-27 09:05 678K
20260427T06Z_MSC_RDPS_SpecificHumidity_Sfc_RLatLon0.09_PT082H.grib2 2026-04-27 09:05 333K
20260427T06Z_MSC_RDPS_StormRelativeHelicity_EtaL-10000_RLatLon0.09_PT082H.grib2 2026-04-27 09:05 1.1M
20260427T06Z_MSC_RDPS_StormSeverityIndex_EtaL-10000_RLatLon0.09_PT082H.grib2 2026-04-27 09:05 1.2M
20260427T06Z_MSC_RDPS_Thickness_IsbL-0850to0700_RLatLon0.09_PT082H.grib2 2026-04-27 09:05 177K
20260427T06Z_MSC_RDPS_Thickness_IsbL-1000to0500_RLatLon0.09_PT082H.grib2 2026-04-27 09:05 201K
20260427T06Z_MSC_RDPS_Thickness_IsbL-1000to0850_RLatLon0.09_PT082H.grib2 2026-04-27 09:05 266K
20260427T06Z_MSC_RDPS_TotalCloudCover_Sfc_RLatLon0.09_PT082H.grib2 2026-04-27 09:05 657K
20260427T06Z_MSC_RDPS_TotalTotalsIndex_Sfc_RLatLon0.09_PT082H.grib2 2026-04-27 09:05 2.5M
20260427T06Z_MSC_RDPS_UVIndex-ClearSky_Sfc_RLatLon0.09_PT082H.grib2 2026-04-27 09:05 207K
20260427T06Z_MSC_RDPS_UVIndex_Sfc_RLatLon0.09_PT082H.grib2 2026-04-27 09:05 471K
20260427T06Z_MSC_RDPS_UpwardLongwaveRadiationFlux_NTAtm_RLatLon0.09_PT082H.grib2 2026-04-27 09:05 492K
20260427T06Z_MSC_RDPS_UpwardShortwaveRadiationFlux_NTAtm_RLatLon0.09_PT082H.grib2 2026-04-27 09:05 511K
20260427T06Z_MSC_RDPS_VerticalVelocity_IsbL-0250_RLatLon0.09_PT082H.grib2 2026-04-27 09:05 550K
20260427T06Z_MSC_RDPS_VerticalVelocity_IsbL-0500_RLatLon0.09_PT082H.grib2 2026-04-27 09:05 541K
20260427T06Z_MSC_RDPS_VerticalVelocity_IsbL-0700_RLatLon0.09_PT082H.grib2 2026-04-27 09:05 588K
20260427T06Z_MSC_RDPS_VerticalVelocity_IsbL-0850_RLatLon0.09_PT082H.grib2 2026-04-27 09:05 682K
20260427T06Z_MSC_RDPS_VerticalWindShear_EtaL-6500_RLatLon0.09_PT082H.grib2 2026-04-27 09:05 1.2M
20260427T06Z_MSC_RDPS_WindChill_Sfc_RLatLon0.09_PT082H.grib2 2026-04-27 09:05 1.2M
20260427T06Z_MSC_RDPS_WindDir_AGL-10m_RLatLon0.09_PT082H.grib2 2026-04-27 09:05 1.0M
20260427T06Z_MSC_RDPS_WindDir_AGL-120m_RLatLon0.09_PT082H.grib2 2026-04-27 09:05 626K
20260427T06Z_MSC_RDPS_WindDir_AGL-40m_RLatLon0.09_PT082H.grib2 2026-04-27 09:05 648K
20260427T06Z_MSC_RDPS_WindDir_AGL-80m_RLatLon0.09_PT082H.grib2 2026-04-27 09:05 635K
20260427T06Z_MSC_RDPS_WindDir_IsbL-0001_RLatLon0.09_PT082H.grib2 2026-04-27 09:05 300K
20260427T06Z_MSC_RDPS_WindDir_IsbL-0005_RLatLon0.09_PT082H.grib2 2026-04-27 09:05 364K
20260427T06Z_MSC_RDPS_WindDir_IsbL-0010_RLatLon0.09_PT082H.grib2 2026-04-27 09:05 386K
20260427T06Z_MSC_RDPS_WindDir_IsbL-0020_RLatLon0.09_PT082H.grib2 2026-04-27 09:05 413K
20260427T06Z_MSC_RDPS_WindDir_IsbL-0030_RLatLon0.09_PT082H.grib2 2026-04-27 09:05 416K
20260427T06Z_MSC_RDPS_WindDir_IsbL-0050_RLatLon0.09_PT082H.grib2 2026-04-27 09:05 442K
20260427T06Z_MSC_RDPS_WindDir_IsbL-0100_RLatLon0.09_PT082H.grib2 2026-04-27 09:05 432K
20260427T06Z_MSC_RDPS_WindDir_IsbL-0150_RLatLon0.09_PT082H.grib2 2026-04-27 09:05 413K
20260427T06Z_MSC_RDPS_WindDir_IsbL-0175_RLatLon0.09_PT082H.grib2 2026-04-27 09:05 431K
20260427T06Z_MSC_RDPS_WindDir_IsbL-0200_RLatLon0.09_PT082H.grib2 2026-04-27 09:05 446K
20260427T06Z_MSC_RDPS_WindDir_IsbL-0225_RLatLon0.09_PT082H.grib2 2026-04-27 09:05 452K
20260427T06Z_MSC_RDPS_WindDir_IsbL-0250_RLatLon0.09_PT082H.grib2 2026-04-27 09:05 454K
20260427T06Z_MSC_RDPS_WindDir_IsbL-0275_RLatLon0.09_PT082H.grib2 2026-04-27 09:05 478K
20260427T06Z_MSC_RDPS_WindDir_IsbL-0300_RLatLon0.09_PT082H.grib2 2026-04-27 09:05 475K
20260427T06Z_MSC_RDPS_WindDir_IsbL-0350_RLatLon0.09_PT082H.grib2 2026-04-27 09:05 497K
20260427T06Z_MSC_RDPS_WindDir_IsbL-0400_RLatLon0.09_PT082H.grib2 2026-04-27 09:05 507K
20260427T06Z_MSC_RDPS_WindDir_IsbL-0450_RLatLon0.09_PT082H.grib2 2026-04-27 09:05 518K
20260427T06Z_MSC_RDPS_WindDir_IsbL-0500_RLatLon0.09_PT082H.grib2 2026-04-27 09:05 535K
20260427T06Z_MSC_RDPS_WindDir_IsbL-0550_RLatLon0.09_PT082H.grib2 2026-04-27 09:05 553K
20260427T06Z_MSC_RDPS_WindDir_IsbL-0600_RLatLon0.09_PT082H.grib2 2026-04-27 09:05 586K
20260427T06Z_MSC_RDPS_WindDir_IsbL-0650_RLatLon0.09_PT082H.grib2 2026-04-27 09:05 631K
20260427T06Z_MSC_RDPS_WindDir_IsbL-0700_RLatLon0.09_PT082H.grib2 2026-04-27 09:05 669K
20260427T06Z_MSC_RDPS_WindDir_IsbL-0750_RLatLon0.09_PT082H.grib2 2026-04-27 09:05 715K
20260427T06Z_MSC_RDPS_WindDir_IsbL-0800_RLatLon0.09_PT082H.grib2 2026-04-27 09:05 780K
20260427T06Z_MSC_RDPS_WindDir_IsbL-0850_RLatLon0.09_PT082H.grib2 2026-04-27 09:05 857K
20260427T06Z_MSC_RDPS_WindDir_IsbL-0875_RLatLon0.09_PT082H.grib2 2026-04-27 09:05 891K
20260427T06Z_MSC_RDPS_WindDir_IsbL-0900_RLatLon0.09_PT082H.grib2 2026-04-27 09:05 913K
20260427T06Z_MSC_RDPS_WindDir_IsbL-0925_RLatLon0.09_PT082H.grib2 2026-04-27 09:05 926K
20260427T06Z_MSC_RDPS_WindDir_IsbL-0950_RLatLon0.09_PT082H.grib2 2026-04-27 09:05 925K
20260427T06Z_MSC_RDPS_WindDir_IsbL-0970_RLatLon0.09_PT082H.grib2 2026-04-27 09:05 935K
20260427T06Z_MSC_RDPS_WindDir_IsbL-0985_RLatLon0.09_PT082H.grib2 2026-04-27 09:05 943K
20260427T06Z_MSC_RDPS_WindDir_IsbL-1000_RLatLon0.09_PT082H.grib2 2026-04-27 09:05 956K
20260427T06Z_MSC_RDPS_WindDir_IsbL-1015_RLatLon0.09_PT082H.grib2 2026-04-27 09:05 1.0M
20260427T06Z_MSC_RDPS_WindGust-Max_AGL-10m_RLatLon0.09_PT082H.grib2 2026-04-27 09:05 1.0M
20260427T06Z_MSC_RDPS_WindGust-Min_AGL-10m_RLatLon0.09_PT082H.grib2 2026-04-27 09:05 1.0M
20260427T06Z_MSC_RDPS_WindGust_AGL-10m_RLatLon0.09_PT082H.grib2 2026-04-27 09:05 1.0M
20260427T06Z_MSC_RDPS_WindSpeed_AGL-10m_RLatLon0.09_PT082H.grib2 2026-04-27 09:05 841K
20260427T06Z_MSC_RDPS_WindSpeed_AGL-120m_RLatLon0.09_PT082H.grib2 2026-04-27 09:05 538K
20260427T06Z_MSC_RDPS_WindSpeed_AGL-40m_RLatLon0.09_PT082H.grib2 2026-04-27 09:05 669K
20260427T06Z_MSC_RDPS_WindSpeed_AGL-80m_RLatLon0.09_PT082H.grib2 2026-04-27 09:05 538K
20260427T06Z_MSC_RDPS_WindSpeed_IsbL-0001_RLatLon0.09_PT082H.grib2 2026-04-27 09:05 336K
20260427T06Z_MSC_RDPS_WindSpeed_IsbL-0005_RLatLon0.09_PT082H.grib2 2026-04-27 09:05 384K
20260427T06Z_MSC_RDPS_WindSpeed_IsbL-0010_RLatLon0.09_PT082H.grib2 2026-04-27 09:05 402K
20260427T06Z_MSC_RDPS_WindSpeed_IsbL-0020_RLatLon0.09_PT082H.grib2 2026-04-27 09:05 326K
20260427T06Z_MSC_RDPS_WindSpeed_IsbL-0030_RLatLon0.09_PT082H.grib2 2026-04-27 09:05 325K
20260427T06Z_MSC_RDPS_WindSpeed_IsbL-0050_RLatLon0.09_PT082H.grib2 2026-04-27 09:05 454K
20260427T06Z_MSC_RDPS_WindSpeed_IsbL-0100_RLatLon0.09_PT082H.grib2 2026-04-27 09:05 478K
20260427T06Z_MSC_RDPS_WindSpeed_IsbL-0150_RLatLon0.09_PT082H.grib2 2026-04-27 09:05 382K
20260427T06Z_MSC_RDPS_WindSpeed_IsbL-0175_RLatLon0.09_PT082H.grib2 2026-04-27 09:05 426K
20260427T06Z_MSC_RDPS_WindSpeed_IsbL-0200_RLatLon0.09_PT082H.grib2 2026-04-27 09:05 441K
20260427T06Z_MSC_RDPS_WindSpeed_IsbL-0225_RLatLon0.09_PT082H.grib2 2026-04-27 09:05 447K
20260427T06Z_MSC_RDPS_WindSpeed_IsbL-0250_RLatLon0.09_PT082H.grib2 2026-04-27 09:05 451K
20260427T06Z_MSC_RDPS_WindSpeed_IsbL-0275_RLatLon0.09_PT082H.grib2 2026-04-27 09:05 471K
20260427T06Z_MSC_RDPS_WindSpeed_IsbL-0300_RLatLon0.09_PT082H.grib2 2026-04-27 09:05 468K
20260427T06Z_MSC_RDPS_WindSpeed_IsbL-0350_RLatLon0.09_PT082H.grib2 2026-04-27 09:05 481K
20260427T06Z_MSC_RDPS_WindSpeed_IsbL-0400_RLatLon0.09_PT082H.grib2 2026-04-27 09:05 465K
20260427T06Z_MSC_RDPS_WindSpeed_IsbL-0450_RLatLon0.09_PT082H.grib2 2026-04-27 09:05 465K
20260427T06Z_MSC_RDPS_WindSpeed_IsbL-0500_RLatLon0.09_PT082H.grib2 2026-04-27 09:05 466K
20260427T06Z_MSC_RDPS_WindSpeed_IsbL-0550_RLatLon0.09_PT082H.grib2 2026-04-27 09:05 465K
20260427T06Z_MSC_RDPS_WindSpeed_IsbL-0600_RLatLon0.09_PT082H.grib2 2026-04-27 09:05 589K
20260427T06Z_MSC_RDPS_WindSpeed_IsbL-0650_RLatLon0.09_PT082H.grib2 2026-04-27 09:05 609K
20260427T06Z_MSC_RDPS_WindSpeed_IsbL-0700_RLatLon0.09_PT082H.grib2 2026-04-27 09:05 634K
20260427T06Z_MSC_RDPS_WindSpeed_IsbL-0750_RLatLon0.09_PT082H.grib2 2026-04-27 09:05 706K
20260427T06Z_MSC_RDPS_WindSpeed_IsbL-0800_RLatLon0.09_PT082H.grib2 2026-04-27 09:05 750K
20260427T06Z_MSC_RDPS_WindSpeed_IsbL-0850_RLatLon0.09_PT082H.grib2 2026-04-27 09:05 805K
20260427T06Z_MSC_RDPS_WindSpeed_IsbL-0875_RLatLon0.09_PT082H.grib2 2026-04-27 09:05 836K
20260427T06Z_MSC_RDPS_WindSpeed_IsbL-0900_RLatLon0.09_PT082H.grib2 2026-04-27 09:05 848K
20260427T06Z_MSC_RDPS_WindSpeed_IsbL-0925_RLatLon0.09_PT082H.grib2 2026-04-27 09:05 858K
20260427T06Z_MSC_RDPS_WindSpeed_IsbL-0950_RLatLon0.09_PT082H.grib2 2026-04-27 09:05 855K
20260427T06Z_MSC_RDPS_WindSpeed_IsbL-0970_RLatLon0.09_PT082H.grib2 2026-04-27 09:05 856K
20260427T06Z_MSC_RDPS_WindSpeed_IsbL-0985_RLatLon0.09_PT082H.grib2 2026-04-27 09:05 852K
20260427T06Z_MSC_RDPS_WindSpeed_IsbL-1000_RLatLon0.09_PT082H.grib2 2026-04-27 09:05 849K
20260427T06Z_MSC_RDPS_WindSpeed_IsbL-1015_RLatLon0.09_PT082H.grib2 2026-04-27 09:05 841K
20260427T06Z_MSC_RDPS_WindU_AGL-10m_RLatLon0.09_PT082H.grib2 2026-04-27 09:05 434K
20260427T06Z_MSC_RDPS_WindU_AGL-120m_RLatLon0.09_PT082H.grib2 2026-04-27 09:05 536K
20260427T06Z_MSC_RDPS_WindU_AGL-40m_RLatLon0.09_PT082H.grib2 2026-04-27 09:05 538K
20260427T06Z_MSC_RDPS_WindU_AGL-80m_RLatLon0.09_PT082H.grib2 2026-04-27 09:05 537K
20260427T06Z_MSC_RDPS_WindU_IsbL-0001_RLatLon0.09_PT082H.grib2 2026-04-27 09:05 245K
20260427T06Z_MSC_RDPS_WindU_IsbL-0005_RLatLon0.09_PT082H.grib2 2026-04-27 09:05 286K
20260427T06Z_MSC_RDPS_WindU_IsbL-0010_RLatLon0.09_PT082H.grib2 2026-04-27 09:05 300K
20260427T06Z_MSC_RDPS_WindU_IsbL-0020_RLatLon0.09_PT082H.grib2 2026-04-27 09:05 316K
20260427T06Z_MSC_RDPS_WindU_IsbL-0030_RLatLon0.09_PT082H.grib2 2026-04-27 09:05 315K
20260427T06Z_MSC_RDPS_WindU_IsbL-0050_RLatLon0.09_PT082H.grib2 2026-04-27 09:05 342K
20260427T06Z_MSC_RDPS_WindU_IsbL-0100_RLatLon0.09_PT082H.grib2 2026-04-27 09:05 433K
20260427T06Z_MSC_RDPS_WindU_IsbL-0150_RLatLon0.09_PT082H.grib2 2026-04-27 09:05 397K
20260427T06Z_MSC_RDPS_WindU_IsbL-0175_RLatLon0.09_PT082H.grib2 2026-04-27 09:05 420K
20260427T06Z_MSC_RDPS_WindU_IsbL-0200_RLatLon0.09_PT082H.grib2 2026-04-27 09:05 434K
20260427T06Z_MSC_RDPS_WindU_IsbL-0225_RLatLon0.09_PT082H.grib2 2026-04-27 09:05 340K
20260427T06Z_MSC_RDPS_WindU_IsbL-0250_RLatLon0.09_PT082H.grib2 2026-04-27 09:05 342K
20260427T06Z_MSC_RDPS_WindU_IsbL-0275_RLatLon0.09_PT082H.grib2 2026-04-27 09:05 358K
20260427T06Z_MSC_RDPS_WindU_IsbL-0300_RLatLon0.09_PT082H.grib2 2026-04-27 09:05 355K
20260427T06Z_MSC_RDPS_WindU_IsbL-0350_RLatLon0.09_PT082H.grib2 2026-04-27 09:05 365K
20260427T06Z_MSC_RDPS_WindU_IsbL-0400_RLatLon0.09_PT082H.grib2 2026-04-27 09:05 470K
20260427T06Z_MSC_RDPS_WindU_IsbL-0450_RLatLon0.09_PT082H.grib2 2026-04-27 09:05 469K
20260427T06Z_MSC_RDPS_WindU_IsbL-0500_RLatLon0.09_PT082H.grib2 2026-04-27 09:05 471K
20260427T06Z_MSC_RDPS_WindU_IsbL-0550_RLatLon0.09_PT082H.grib2 2026-04-27 09:05 471K
20260427T06Z_MSC_RDPS_WindU_IsbL-0600_RLatLon0.09_PT082H.grib2 2026-04-27 09:05 460K
20260427T06Z_MSC_RDPS_WindU_IsbL-0650_RLatLon0.09_PT082H.grib2 2026-04-27 09:05 479K
20260427T06Z_MSC_RDPS_WindU_IsbL-0700_RLatLon0.09_PT082H.grib2 2026-04-27 09:05 625K
20260427T06Z_MSC_RDPS_WindU_IsbL-0750_RLatLon0.09_PT082H.grib2 2026-04-27 09:05 652K
20260427T06Z_MSC_RDPS_WindU_IsbL-0800_RLatLon0.09_PT082H.grib2 2026-04-27 09:05 695K
20260427T06Z_MSC_RDPS_WindU_IsbL-0850_RLatLon0.09_PT082H.grib2 2026-04-27 09:05 620K
20260427T06Z_MSC_RDPS_WindU_IsbL-0875_RLatLon0.09_PT082H.grib2 2026-04-27 09:05 641K
20260427T06Z_MSC_RDPS_WindU_IsbL-0900_RLatLon0.09_PT082H.grib2 2026-04-27 09:05 653K
20260427T06Z_MSC_RDPS_WindU_IsbL-0925_RLatLon0.09_PT082H.grib2 2026-04-27 09:05 660K
20260427T06Z_MSC_RDPS_WindU_IsbL-0950_RLatLon0.09_PT082H.grib2 2026-04-27 09:05 654K
20260427T06Z_MSC_RDPS_WindU_IsbL-0970_RLatLon0.09_PT082H.grib2 2026-04-27 09:05 653K
20260427T06Z_MSC_RDPS_WindU_IsbL-0985_RLatLon0.09_PT082H.grib2 2026-04-27 09:05 790K
20260427T06Z_MSC_RDPS_WindU_IsbL-1000_RLatLon0.09_PT082H.grib2 2026-04-27 09:05 790K
20260427T06Z_MSC_RDPS_WindU_IsbL-1015_RLatLon0.09_PT082H.grib2 2026-04-27 09:05 831K
20260427T06Z_MSC_RDPS_WindV_AGL-10m_RLatLon0.09_PT082H.grib2 2026-04-27 09:05 416K
20260427T06Z_MSC_RDPS_WindV_AGL-120m_RLatLon0.09_PT082H.grib2 2026-04-27 09:05 533K
20260427T06Z_MSC_RDPS_WindV_AGL-40m_RLatLon0.09_PT082H.grib2 2026-04-27 09:05 534K
20260427T06Z_MSC_RDPS_WindV_AGL-80m_RLatLon0.09_PT082H.grib2 2026-04-27 09:05 533K
20260427T06Z_MSC_RDPS_WindV_IsbL-0001_RLatLon0.09_PT082H.grib2 2026-04-27 09:05 247K
20260427T06Z_MSC_RDPS_WindV_IsbL-0005_RLatLon0.09_PT082H.grib2 2026-04-27 09:05 287K
20260427T06Z_MSC_RDPS_WindV_IsbL-0010_RLatLon0.09_PT082H.grib2 2026-04-27 09:05 303K
20260427T06Z_MSC_RDPS_WindV_IsbL-0020_RLatLon0.09_PT082H.grib2 2026-04-27 09:05 319K
20260427T06Z_MSC_RDPS_WindV_IsbL-0030_RLatLon0.09_PT082H.grib2 2026-04-27 09:05 319K
20260427T06Z_MSC_RDPS_WindV_IsbL-0050_RLatLon0.09_PT082H.grib2 2026-04-27 09:05 344K
20260427T06Z_MSC_RDPS_WindV_IsbL-0100_RLatLon0.09_PT082H.grib2 2026-04-27 09:05 428K
20260427T06Z_MSC_RDPS_WindV_IsbL-0150_RLatLon0.09_PT082H.grib2 2026-04-27 09:05 394K
20260427T06Z_MSC_RDPS_WindV_IsbL-0175_RLatLon0.09_PT082H.grib2 2026-04-27 09:05 419K
20260427T06Z_MSC_RDPS_WindV_IsbL-0200_RLatLon0.09_PT082H.grib2 2026-04-27 09:05 336K
20260427T06Z_MSC_RDPS_WindV_IsbL-0225_RLatLon0.09_PT082H.grib2 2026-04-27 09:05 339K
20260427T06Z_MSC_RDPS_WindV_IsbL-0250_RLatLon0.09_PT082H.grib2 2026-04-27 09:05 339K
20260427T06Z_MSC_RDPS_WindV_IsbL-0275_RLatLon0.09_PT082H.grib2 2026-04-27 09:05 355K
20260427T06Z_MSC_RDPS_WindV_IsbL-0300_RLatLon0.09_PT082H.grib2 2026-04-27 09:05 351K
20260427T06Z_MSC_RDPS_WindV_IsbL-0350_RLatLon0.09_PT082H.grib2 2026-04-27 09:05 362K
20260427T06Z_MSC_RDPS_WindV_IsbL-0400_RLatLon0.09_PT082H.grib2 2026-04-27 09:05 466K
20260427T06Z_MSC_RDPS_WindV_IsbL-0450_RLatLon0.09_PT082H.grib2 2026-04-27 09:05 466K
20260427T06Z_MSC_RDPS_WindV_IsbL-0500_RLatLon0.09_PT082H.grib2 2026-04-27 09:05 466K
20260427T06Z_MSC_RDPS_WindV_IsbL-0550_RLatLon0.09_PT082H.grib2 2026-04-27 09:05 466K
20260427T06Z_MSC_RDPS_WindV_IsbL-0600_RLatLon0.09_PT082H.grib2 2026-04-27 09:05 473K
20260427T06Z_MSC_RDPS_WindV_IsbL-0650_RLatLon0.09_PT082H.grib2 2026-04-27 09:05 474K
20260427T06Z_MSC_RDPS_WindV_IsbL-0700_RLatLon0.09_PT082H.grib2 2026-04-27 09:05 496K
20260427T06Z_MSC_RDPS_WindV_IsbL-0750_RLatLon0.09_PT082H.grib2 2026-04-27 09:05 520K
20260427T06Z_MSC_RDPS_WindV_IsbL-0800_RLatLon0.09_PT082H.grib2 2026-04-27 09:05 689K
20260427T06Z_MSC_RDPS_WindV_IsbL-0850_RLatLon0.09_PT082H.grib2 2026-04-27 09:05 750K
20260427T06Z_MSC_RDPS_WindV_IsbL-0875_RLatLon0.09_PT082H.grib2 2026-04-27 09:05 776K
20260427T06Z_MSC_RDPS_WindV_IsbL-0900_RLatLon0.09_PT082H.grib2 2026-04-27 09:05 790K
20260427T06Z_MSC_RDPS_WindV_IsbL-0925_RLatLon0.09_PT082H.grib2 2026-04-27 09:05 798K
20260427T06Z_MSC_RDPS_WindV_IsbL-0950_RLatLon0.09_PT082H.grib2 2026-04-27 09:05 791K
20260427T06Z_MSC_RDPS_WindV_IsbL-0970_RLatLon0.09_PT082H.grib2 2026-04-27 09:05 839K
20260427T06Z_MSC_RDPS_WindV_IsbL-0985_RLatLon0.09_PT082H.grib2 2026-04-27 09:05 835K
20260427T06Z_MSC_RDPS_WindV_IsbL-1000_RLatLon0.09_PT082H.grib2 2026-04-27 09:05 832K
20260427T06Z_MSC_RDPS_WindV_IsbL-1015_RLatLon0.09_PT082H.grib2 2026-04-27 09:05 821K